| time (UTC) | temp C | wind direction | speed KPH | gust KPH | rain 1hr cm | rain 24hr cm | rain mn cm | humidity % | barometer mb |
| 20260505085033 | 17 | 103 | 0.0 | 0.0 | 0.00 | 0.00 | 0.00 | 65 | 1020.7 |
| 20260505082617 | 18 | 103 | 0.0 | 0.0 | 0.00 | 0.00 | 0.00 | 63 | 1020.5 |
| 20260505082104 | 18 | 103 | 0.0 | 0.0 | 0.00 | 0.00 | 0.00 | 61 | 1020.4 |
| 20260505081605 | 18 | 103 | 0.0 | 0.0 | 0.00 | 0.00 | 0.00 | 60 | 1020.5 |
| 20260505081457 | 18 | 103 | 0.0 | 0.0 | 0.00 | 0.00 | 0.00 | 60 | 1020.4 |
| 20260505080607 | 18 | 103 | 0.0 | 0.0 | 0.00 | 0.00 | 0.00 | 60 | 1020.3 |
| 20260505075610 | 19 | 103 | 0.0 | 0.0 | 0.00 | 0.00 | 0.00 | 59 | 1020.2 |
| 20260505075109 | 19 | 103 | 0.0 | 0.0 | 0.00 | 0.00 | 0.00 | 58 | 1020.0 |
| 20260505074609 | 19 | 103 | 0.0 | 1.6 | 0.00 | 0.00 | 0.00 | 57 | 1019.8 |
| 20260505074107 | 20 | 103 | 0.0 | 1.6 | 0.00 | 0.00 | 0.00 | 57 | 1019.7 |
| 20260505073608 | 20 | 103 | 0.0 | 1.6 | 0.00 | 0.00 | 0.00 | 56 | 1019.6 |
| 20260505073449 | 20 | 103 | 0.0 | 3.2 | 0.00 | 0.00 | 0.00 | 55 | 1019.5 |
| 20260505072609 | 20 | 103 | 1.6 | 3.2 | 0.00 | 0.00 | 0.00 | 54 | 1019.5 |
| 20260505072538 | 21 | 150 | 0.0 | 3.2 | 0.00 | 0.00 | 0.00 | 54 | 1019.3 |
| 20260505071609 | 21 | 150 | 0.0 | 3.2 | 0.00 | 0.00 | 0.00 | 53 | 1019.3 |
| 20260505071106 | 21 | 171 | 0.0 | 8.0 | 0.00 | 0.00 | 0.00 | 53 | 1019.1 |
| 20260505070606 | 21 | 155 | 1.6 | 9.7 | 0.00 | 0.00 | 0.00 | 52 | 1019.1 |
| 20260505070113 | 21 | 153 | 3.2 | 9.7 | 0.00 | 0.00 | 0.00 | 51 | 1019.0 |
| 20260505065939 | 21 | 171 | 0.0 | 9.7 | 0.00 | 0.00 | 0.00 | 49 | 1018.9 |
| 20260505065104 | 21 | 156 | 1.6 | 9.7 | 0.00 | 0.00 | 0.00 | 47 | 1018.8 |
| 20260505064602 | 22 | 202 | 3.2 | 8.0 | 0.00 | 0.00 | 0.00 | 44 | 1018.7 |
| 20260505064105 | 22 | 266 | 3.2 | 8.0 | 0.00 | 0.00 | 0.00 | 44 | 1018.6 |
| 20260505063947 | 22 | 215 | 1.6 | 9.7 | 0.00 | 0.00 | 0.00 | 44 | 1018.5 |
| 20260505063103 | 22 | 231 | 4.8 | 11.3 | 0.00 | 0.00 | 0.00 | 43 | 1018.5 |
| 20260505062605 | 22 | 240 | 3.2 | 12.9 | 0.00 | 0.00 | 0.00 | 43 | 1018.5 |
| 20260505062105 | 22 | 220 | 3.2 | 12.9 | 0.00 | 0.00 | 0.00 | 43 | 1018.4 |
| 20260505061605 | 22 | 242 | 4.8 | 11.3 | 0.00 | 0.00 | 0.00 | 43 | 1018.4 |
| 20260505061109 | 22 | 240 | 3.2 | 9.7 | 0.00 | 0.00 | 0.00 | 43 | 1018.5 |
| 20260505061017 | 22 | 215 | 1.6 | 11.3 | 0.00 | 0.00 | 0.00 | 43 | 1018.4 |
| 20260505060106 | 23 | 240 | 6.4 | 16.1 | 0.00 | 0.00 | 0.00 | 43 | 1018.5 |
| 20260505055609 | 23 | 185 | 3.2 | 14.5 | 0.00 | 0.00 | 0.00 | 41 | 1018.6 |
| 20260505055102 | 23 | 210 | 6.4 | 12.9 | 0.00 | 0.00 | 0.00 | 42 | 1018.4 |
| 20260505054602 | 23 | 232 | 4.8 | 12.9 | 0.00 | 0.00 | 0.00 | 42 | 1018.5 |
| 20260505054103 | 23 | 219 | 3.2 | 9.7 | 0.00 | 0.00 | 0.00 | 41 | 1018.4 |
| 20260505053603 | 23 | 194 | 3.2 | 12.9 | 0.00 | 0.00 | 0.00 | 41 | 1018.4 |
| 20260505053103 | 23 | 302 | 6.4 | 12.9 | 0.00 | 0.00 | 0.00 | 43 | 1018.4 |
| 20260505052603 | 23 | 257 | 3.2 | 12.9 | 0.00 | 0.00 | 0.00 | 43 | 1018.4 |
| 20260505052104 | 23 | 268 | 1.6 | 12.9 | 0.00 | 0.00 | 0.00 | 45 | 1018.5 |
| 20260505051605 | 23 | 279 | 6.4 | 11.3 | 0.00 | 0.00 | 0.00 | 43 | 1018.4 |
| 20260505051104 | 23 | 211 | 4.8 | 9.7 | 0.00 | 0.00 | 0.00 | 44 | 1018.4 |
| 20260505050608 | 23 | 261 | 3.2 | 11.3 | 0.00 | 0.00 | 0.00 | 46 | 1018.4 |
| 20260505050108 | 23 | 270 | 6.4 | 12.9 | 0.00 | 0.00 | 0.00 | 44 | 1018.4 |
| 20260505041607 | 23 | 211 | 6.4 | 12.9 | 0.00 | 0.00 | 0.00 | 45 | 1018.1 |
| 20260505041103 | 23 | 181 | 3.2 | 12.9 | 0.00 | 0.00 | 0.00 | 45 | 1018.1 |
| 20260505040603 | 23 | 240 | 4.8 | 12.9 | 0.00 | 0.00 | 0.00 | 46 | 1018.0 |
| 20260505040109 | 23 | 261 | 4.8 | 12.9 | 0.00 | 0.00 | 0.00 | 44 | 1018.0 |
| 20260505035607 | 23 | 203 | 6.4 | 12.9 | 0.00 | 0.00 | 0.00 | 45 | 1018.1 |
| 20260505035109 | 23 | 254 | 3.2 | 16.1 | 0.00 | 0.00 | 0.00 | 44 | 1018.0 |
| 20260505034606 | 23 | 284 | 9.7 | 16.1 | 0.00 | 0.00 | 0.00 | 44 | 1017.9 |
| 20260505034108 | 23 | 259 | 6.4 | 16.1 | 0.00 | 0.00 | 0.00 | 44 | 1018.0 |
| 20260505033607 | 23 | 272 | 4.8 | 16.1 | 0.00 | 0.00 | 0.00 | 46 | 1018.2 |
| 20260505033534 | 23 | 261 | 6.4 | 17.7 | 0.00 | 0.03 | 0.00 | 45 | 1018.3 |
| 20260505032607 | 23 | 275 | 8.0 | 17.7 | 0.00 | 0.05 | 0.00 | 46 | 1018.2 |
| 20260505032547 | 23 | 225 | 4.8 | 17.7 | 0.00 | 0.05 | 0.00 | 47 | 1018.3 |
| 20260505031958 | 22 | 256 | 8.0 | 17.7 | 0.00 | 0.05 | 0.00 | 47 | 1018.2 |
| 20260505031117 | 22 | 240 | 4.8 | 17.7 | 0.00 | 0.05 | 0.00 | 47 | 1018.3 |
| 20260505030951 | 22 | 200 | 4.8 | 25.7 | 0.00 | 0.05 | 0.00 | 47 | 1018.4 |
| 20260505030105 | 22 | 248 | 14.5 | 25.7 | 0.00 | 0.05 | 0.00 | 47 | 1018.4 |
| 20260505025605 | 22 | 284 | 9.7 | 16.1 | 0.00 | 0.05 | 0.00 | 46 | 1018.4 |
| 20260505025519 | 22 | 250 | 9.7 | 19.3 | 0.00 | 0.05 | 0.00 | 48 | 1018.5 |
| 20260505024603 | 22 | 219 | 11.3 | 27.4 | 0.00 | 0.05 | 0.00 | 49 | 1018.6 |
| 20260505024504 | 22 | 257 | 14.5 | 27.4 | 0.00 | 0.05 | 0.00 | 47 | 1018.6 |
| 20260505023603 | 22 | 266 | 8.0 | 24.1 | 0.00 | 0.05 | 0.00 | 49 | 1018.6 |
| 20260505023104 | 22 | 241 | 6.4 | 24.1 | 0.00 | 0.08 | 0.00 | 50 | 1018.6 |
| 20260505022609 | 21 | 329 | 8.0 | 20.9 | 0.00 | 0.10 | 0.00 | 50 | 1018.7 |
| 20260505022108 | 21 | 265 | 9.7 | 19.3 | 0.00 | 0.13 | 0.00 | 49 | 1018.7 |
| 20260505021606 | 21 | 255 | 12.9 | 25.7 | 0.00 | 0.15 | 0.00 | 50 | 1018.7 |
| 20260505021107 | 21 | 249 | 12.9 | 25.7 | 0.00 | 0.18 | 0.00 | 50 | 1018.8 |
| 20260505020608 | 21 | 248 | 9.7 | 22.5 | 0.00 | 0.20 | 0.00 | 50 | 1018.9 |
| 20260505020109 | 21 | 279 | 11.3 | 19.3 | 0.00 | 0.20 | 0.00 | 51 | 1018.7 |
| 20260505015607 | 21 | 269 | 12.9 | 20.9 | 0.00 | 0.20 | 0.00 | 51 | 1018.8 |
| 20260505015106 | 21 | 261 | 12.9 | 20.9 | 0.00 | 0.20 | 0.00 | 51 | 1018.9 |
| 20260505014608 | 21 | 254 | 9.7 | 22.5 | 0.00 | 0.23 | 0.00 | 52 | 1019.1 |
| 20260505014532 | 21 | 277 | 12.9 | 22.5 | 0.00 | 0.23 | 0.00 | 53 | 1019.2 |
| 20260505013605 | 21 | 267 | 11.3 | 25.7 | 0.00 | 0.23 | 0.00 | 54 | 1019.3 |
| 20260505013105 | 20 | 279 | 11.3 | 27.4 | 0.00 | 0.23 | 0.00 | 55 | 1019.3 |
| 20260505012606 | 20 | 273 | 16.1 | 27.4 | 0.00 | 0.23 | 0.00 | 56 | 1019.4 |
| 20260505012529 | 20 | 289 | 9.7 | 24.1 | 0.00 | 0.25 | 0.00 | 56 | 1019.4 |
| 20260505011606 | 20 | 237 | 14.5 | 24.1 | 0.00 | 0.25 | 0.00 | 57 | 1019.3 |
| 20260505011112 | 20 | 248 | 14.5 | 24.1 | 0.00 | 0.25 | 0.00 | 58 | 1019.3 |
| 20260505010603 | 20 | 246 | 12.9 | 24.1 | 0.00 | 0.28 | 0.00 | 57 | 1019.3 |
| 20260505010104 | 20 | 266 | 9.7 | 22.5 | 0.00 | 0.28 | 0.00 | 58 | 1019.5 |
| 20260505005610 | 20 | 262 | 12.9 | 27.4 | 0.00 | 0.28 | 0.00 | 57 | 1019.6 |
| 20260505005106 | 20 | 254 | 14.5 | 27.4 | 0.00 | 0.28 | 0.00 | 57 | 1019.7 |
| 20260505004612 | 19 | 309 | 11.3 | 22.5 | 0.00 | 0.28 | 0.00 | 58 | 1019.8 |
| 20260505004458 | 19 | 263 | 16.1 | 25.7 | 0.00 | 0.28 | 0.00 | 58 | 1019.7 |
| 20260505003610 | 19 | 284 | 12.9 | 25.7 | 0.00 | 0.28 | 0.00 | 58 | 1019.6 |
| 20260505003111 | 19 | 273 | 11.3 | 24.1 | 0.00 | 0.28 | 0.00 | 58 | 1020.0 |
| 20260505002606 | 19 | 239 | 9.7 | 20.9 | 0.00 | 0.28 | 0.00 | 58 | 1019.9 |
| 20260505002107 | 19 | 288 | 9.7 | 20.9 | 0.00 | 0.28 | 0.00 | 59 | 1019.9 |
| 20260505001602 | 19 | 266 | 9.7 | 20.9 | 0.00 | 0.28 | 0.00 | 59 | 1019.9 |
| 20260505001056 | 19 | 238 | 6.4 | 19.3 | 0.00 | 0.28 | 0.00 | 60 | 1019.9 |
| 20260505000852 | 18 | 263 | 12.9 | 25.7 | 0.00 | 0.28 | 0.00 | 60 | 1020.0 |
| 20260504235602 | 18 | 296 | 16.1 | 25.7 | 0.00 | 0.28 | 0.00 | 59 | 1019.8 |
| 20260504235053 | 18 | 295 | 12.9 | 25.7 | 0.00 | 0.28 | 0.00 | 60 | 1020.0 |
| 20260504234552 | 18 | 284 | 12.9 | 25.7 | 0.00 | 0.28 | 0.00 | 60 | 1020.1 |
| 20260504234052 | 18 | 220 | 8.0 | 24.1 | 0.00 | 0.28 | 0.00 | 60 | 1020.2 |
| 20260504233547 | 18 | 270 | 8.0 | 24.1 | 0.00 | 0.28 | 0.00 | 60 | 1020.2 |
| 20260504233042 | 18 | 263 | 4.8 | 20.9 | 0.00 | 0.28 | 0.00 | 61 | 1020.4 |
| 20260504232541 | 18 | 271 | 6.4 | 20.9 | 0.00 | 0.28 | 0.00 | 62 | 1020.3 |
| 20260504232039 | 18 | 291 | 9.7 | 19.3 | 0.00 | 0.28 | 0.00 | 62 | 1020.2 |
| 20260504231540 | 18 | 298 | 12.9 | 19.3 | 0.00 | 0.28 | 0.00 | 62 | 1020.3 |
| 20260504231039 | 18 | 249 | 9.7 | 19.3 | 0.00 | 0.28 | 0.00 | 62 | 1020.3 |
| 20260504230536 | 17 | 246 | 9.7 | 20.9 | 0.00 | 0.28 | 0.00 | 62 | 1020.2 |
| 20260504230034 | 17 | 267 | 6.4 | 20.9 | 0.00 | 0.28 | 0.00 | 63 | 1020.1 |
| 20260504225533 | 17 | 263 | 9.7 | 20.9 | 0.00 | 0.28 | 0.00 | 64 | 1020.0 |
| 20260504225031 | 17 | 290 | 12.9 | 20.9 | 0.00 | 0.28 | 0.00 | 65 | 1020.0 |
| 20260504224532 | 17 | 267 | 9.7 | 16.1 | 0.00 | 0.28 | 0.00 | 67 | 1020.0 |
| 20260504224031 | 17 | 319 | 8.0 | 16.1 | 0.00 | 0.28 | 0.00 | 67 | 1019.9 |
| 20260504223531 | 16 | 281 | 9.7 | 16.1 | 0.00 | 0.28 | 0.00 | 68 | 1020.0 |
| 20260504223032 | 16 | 267 | 6.4 | 14.5 | 0.00 | 0.28 | 0.00 | 69 | 1020.1 |
| 20260504222532 | 16 | 276 | 8.0 | 14.5 | 0.00 | 0.28 | 0.00 | 72 | 1020.2 |
| 20260504222039 | 16 | 280 | 6.4 | 12.9 | 0.00 | 0.28 | 0.00 | 74 | 1020.1 |
| 20260504222005 | 15 | 315 | 6.4 | 11.3 | 0.00 | 0.28 | 0.00 | 78 | 1020.2 |
| 20260504221035 | 14 | 284 | 8.0 | 11.3 | 0.00 | 0.28 | 0.00 | 83 | 1020.2 |
| 20260504220530 | 14 | 271 | 4.8 | 9.7 | 0.00 | 0.28 | 0.00 | 84 | 1020.1 |
| 20260504220031 | 13 | 282 | 1.6 | 11.3 | 0.00 | 0.28 | 0.00 | 86 | 1020.0 |
| 20260504215531 | 13 | 285 | 4.8 | 11.3 | 0.00 | 0.28 | 0.00 | 87 | 1020.0 |
| 20260504215027 | 13 | 280 | 6.4 | 11.3 | 0.00 | 0.28 | 0.00 | 88 | 1019.7 |
| 20260504214953 | 13 | 271 | 4.8 | 9.7 | 0.00 | 0.28 | 0.00 | 89 | 1019.6 |
| 20260504214022 | 13 | 297 | 4.8 | 9.7 | 0.00 | 0.28 | 0.00 | 89 | 1019.6 |
| 20260504213518 | 12 | 304 | 4.8 | 8.0 | 0.00 | 0.28 | 0.00 | 89 | 1019.5 |
| 20260504213145 | 12 | 281 | 1.6 | 6.4 | 0.00 | 0.28 | 0.00 | 89 | 1019.3 |
| 20260504213141 | 12 | 289 | 3.2 | 8.0 | 0.00 | 0.28 | 0.00 | 89 | 1019.3 |
| 20260504213110 | 12 | 291 | 4.8 | 8.0 | 0.00 | 0.28 | 0.00 | 89 | 1019.3 |
| 20260504211516 | 12 | 286 | 3.2 | 6.4 | 0.00 | 0.28 | 0.00 | 89 | 1019.3 |
| 20260504211011 | 12 | 302 | 3.2 | 4.8 | 0.00 | 0.28 | 0.00 | 89 | 1019.3 |
| 20260504210509 | 12 | 288 | 1.6 | 4.8 | 0.00 | 0.28 | 0.00 | 89 | 1019.3 |
| 20260504210008 | 12 | 281 | 3.2 | 4.8 | 0.00 | 0.28 | 0.00 | 89 | 1019.2 |
| 20260504205512 | 12 | 279 | 1.6 | 4.8 | 0.00 | 0.28 | 0.00 | 89 | 1019.0 |
| 20260504205007 | 12 | 271 | 0.0 | 3.2 | 0.00 | 0.28 | 0.00 | 89 | 1019.1 |
| 20260504204520 | 13 | 271 | 1.6 | 6.4 | 0.00 | 0.28 | 0.00 | 89 | 1018.9 |
| 20260504204008 | 13 | 272 | 1.6 | 6.4 | 0.00 | 0.28 | 0.00 | 89 | 1018.7 |
| 20260504203514 | 13 | 263 | 3.2 | 6.4 | 0.00 | 0.28 | 0.00 | 89 | 1018.6 |
| 20260504203002 | 13 | 283 | 4.8 | 6.4 | 0.00 | 0.28 | 0.00 | 89 | 1018.6 |
| 20260504202840 | 13 | 294 | 3.2 | 6.4 | 0.00 | 0.28 | 0.00 | 88 | 1018.6 |
| 20260504202007 | 13 | 271 | 3.2 | 6.4 | 0.00 | 0.28 | 0.00 | 89 | 1018.4 |
| 20260504201515 | 13 | 283 | 3.2 | 6.4 | 0.00 | 0.28 | 0.00 | 88 | 1018.3 |
| 20260504201002 | 13 | 280 | 3.2 | 6.4 | 0.00 | 0.28 | 0.00 | 88 | 1018.4 |
| 20260504200505 | 13 | 277 | 3.2 | 6.4 | 0.00 | 0.28 | 0.00 | 88 | 1018.3 |
| 20260504200004 | 13 | 269 | 3.2 | 6.4 | 0.00 | 0.28 | 0.00 | 88 | 1018.3 |
| 20260504195502 | 13 | 268 | 3.2 | 6.4 | 0.00 | 0.28 | 0.00 | 88 | 1018.3 |
| 20260504195349 | 13 | 239 | 3.2 | 6.4 | 0.00 | 0.28 | 0.00 | 88 | 1018.2 |
| 20260504194506 | 13 | 253 | 4.8 | 6.4 | 0.00 | 0.28 | 0.00 | 88 | 1018.0 |
| 20260504194356 | 13 | 266 | 4.8 | 6.4 | 0.00 | 0.28 | 0.00 | 88 | 1018.1 |
| 20260504193506 | 13 | 276 | 4.8 | 6.4 | 0.00 | 0.28 | 0.00 | 88 | 1018.0 |
| 20260504193130 | 13 | 281 | 3.2 | 6.4 | 0.00 | 0.28 | 0.00 | 87 | 1018.0 |
| 20260504192507 | 13 | 271 | 3.2 | 9.7 | 0.00 | 0.28 | 0.00 | 87 | 1018.0 |
| 20260504192007 | 13 | 269 | 4.8 | 9.7 | 0.00 | 0.28 | 0.00 | 87 | 1018.0 |
| 20260504191507 | 13 | 267 | 3.2 | 9.7 | 0.00 | 0.28 | 0.00 | 87 | 1018.0 |
| 20260504191007 | 13 | 267 | 4.8 | 9.7 | 0.00 | 0.28 | 0.00 | 87 | 1017.9 |
| 20260504190509 | 13 | 268 | 4.8 | 6.4 | 0.00 | 0.28 | 0.00 | 87 | 1017.8 |
| 20260504190008 | 13 | 282 | 3.2 | 6.4 | 0.00 | 0.28 | 0.00 | 87 | 1017.8 |
| 20260504185852 | 13 | 271 | 3.2 | 6.4 | 0.00 | 0.28 | 0.00 | 86 | 1017.5 |
| 20260504185006 | 13 | 275 | 1.6 | 4.8 | 0.00 | 0.28 | 0.00 | 86 | 1017.4 |
| 20260504184506 | 13 | 267 | 3.2 | 4.8 | 0.00 | 0.28 | 0.00 | 86 | 1017.3 |
| 20260504184441 | 13 | 273 | 1.6 | 4.8 | 0.00 | 0.28 | 0.00 | 86 | 1017.4 |
| 20260504183504 | 14 | 278 | 1.6 | 4.8 | 0.00 | 0.28 | 0.00 | 86 | 1017.2 |
| 20260504183335 | 14 | 270 | 3.2 | 6.4 | 0.00 | 0.28 | 0.00 | 86 | 1017.1 |
| 20260504182506 | 14 | 271 | 3.2 | 6.4 | 0.00 | 0.28 | 0.00 | 86 | 1017.1 |
| 20260504182004 | 14 | 271 | 3.2 | 6.4 | 0.00 | 0.28 | 0.00 | 86 | 1017.0 |
| 20260504181503 | 14 | 263 | 3.2 | 6.4 | 0.00 | 0.28 | 0.00 | 85 | 1016.9 |
| 20260504181004 | 14 | 267 | 4.8 | 6.4 | 0.00 | 0.28 | 0.00 | 85 | 1017.1 |
| 20260504180504 | 14 | 263 | 4.8 | 6.4 | 0.00 | 0.28 | 0.00 | 85 | 1017.0 |
| 20260504180353 | 14 | 278 | 1.6 | 4.8 | 0.00 | 0.28 | 0.00 | 84 | 1017.0 |
| 20260504175504 | 14 | 271 | 1.6 | 4.8 | 0.00 | 0.28 | 0.00 | 84 | 1017.1 |
| 20260504175003 | 14 | 268 | 3.2 | 4.8 | 0.00 | 0.28 | 0.00 | 84 | 1017.1 |
| 20260504174503 | 14 | 263 | 3.2 | 4.8 | 0.00 | 0.28 | 0.00 | 84 | 1017.0 |
| 20260504174004 | 15 | 268 | 1.6 | 6.4 | 0.00 | 0.28 | 0.00 | 84 | 1017.0 |
| 20260504173455 | 15 | 268 | 1.6 | 6.4 | 0.00 | 0.28 | 0.00 | 84 | 1016.9 |
| 20260504172811 | 15 | 268 | 0.0 | 4.8 | 0.00 | 0.28 | 0.00 | 84 | 1017.1 |
| 20260504171942 | 15 | 271 | 0.0 | 4.8 | 0.00 | 0.28 | 0.00 | 84 | 1017.1 |
| 20260504171441 | 15 | 271 | 1.6 | 4.8 | 0.00 | 0.28 | 0.00 | 83 | 1017.2 |
| 20260504170942 | 15 | 272 | 3.2 | 4.8 | 0.00 | 0.28 | 0.00 | 83 | 1017.2 |
| 20260504170727 | 15 | 272 | 1.6 | 3.2 | 0.00 | 0.28 | 0.00 | 83 | 1017.2 |
| 20260504170606 | 15 | 272 | 1.6 | 4.8 | 0.00 | 0.28 | 0.00 | 83 | 1017.3 |
| 20260504160415 | 16 | 266 | 3.2 | 9.7 | 0.00 | 0.28 | 0.00 | 85 | 1017.5 |
| 20260504150847 | 17 | 211 | 1.6 | 3.2 | 0.00 | 0.28 | 0.00 | 88 | 1017.1 |
| 20260504150345 | 17 | 275 | 0.0 | 4.8 | 0.00 | 0.28 | 0.00 | 88 | 1017.2 |
| 20260504150239 | 17 | 278 | 0.0 | 6.4 | 0.00 | 0.28 | 0.00 | 88 | 1017.3 |
| 20260504150234 | 17 | 277 | 1.6 | 6.4 | 0.00 | 0.28 | 0.00 | 88 | 1017.4 |
| 20260504150223 | 17 | 278 | 3.2 | 6.4 | 0.00 | 0.28 | 0.00 | 88 | 1017.4 |
| 20260504141331 | 17 | 265 | 3.2 | 9.7 | 0.00 | 0.28 | 0.00 | 88 | 1017.2 |
| 20260504140830 | 17 | 257 | 3.2 | 9.7 | 0.00 | 0.28 | 0.00 | 87 | 1017.3 |
| 20260504140334 | 17 | 263 | 3.2 | 9.7 | 0.00 | 0.28 | 0.00 | 87 | 1017.3 |
| 20260504130343 | 18 | 295 | 3.2 | 9.7 | 0.00 | 0.28 | 0.28 | 83 | 1017.3 |
| 20260504130200 | 18 | 267 | 3.2 | 12.9 | 0.00 | 0.28 | 0.28 | 83 | 1017.2 |
| 20260504120306 | 18 | 273 | 3.2 | 6.4 | 0.00 | 0.28 | 0.28 | 81 | 1017.0 |
| 20260504110138 | 19 | 342 | 4.8 | 12.9 | 0.00 | 0.28 | 0.28 | 80 | 1016.6 |
| 20260504100308 | 19 | 32 | 6.4 | 9.7 | 0.00 | 0.28 | 0.28 | 81 | 1015.9 |